FW4092 Weather Reports


time (UTC)temp
F
wind
direction
speed
knots
gust
knots
rain 1hr
in
rain 24hr
in
rain mn
in
humidity
%
barometer
mb
20260510105757 50 148 0.0 1.7 0.00 0.00 0.00 52 1013.4
20260510105300 50 148 0.0 1.7 0.00 0.00 0.00 52 1013.3
20260510104755 50 149 0.0 1.7 0.00 0.00 0.00 53 1013.4
20260510104537 49 149 0.0 1.7 0.00 0.00 0.00 53 1013.3
20260510103745 49 149 0.0 1.7 0.00 0.00 0.00 53 1013.2
20260510103241 49 150 0.9 2.6 0.00 0.00 0.00 54 1013.2
20260510102730 49 148 0.9 2.6 0.00 0.00 0.00 54 1013.1
20260510102500 49 287 0.0 1.7 0.00 0.00 0.00 54 1013.3
20260510101726 49 298 0.0 0.0 0.00 0.00 0.00 54 1013.4
20260510101452 49 298 0.0 0.0 0.00 0.00 0.00 53 1013.3
20260510100720 49 298 0.0 0.0 0.00 0.00 0.00 53 1013.3
20260510100426 50 299 0.0 0.0 0.00 0.00 0.00 52 1013.3
20260510100214 50 299 0.0 0.0 0.00 0.00 0.00 52 1013.3
20260510095926 50 299 0.0 0.0 0.00 0.00 0.00 51 1013.4
20260510095149 51 298 0.0 0.0 0.00 0.00 0.00 51 1013.4
20260510094926 52 298 0.0 0.0 0.00 0.00 0.00 50 1013.4
20260510094137 52 298 0.0 0.0 0.00 0.00 0.00 50 1013.5
20260510093630 53 298 0.0 0.0 0.00 0.00 0.00 50 1013.5
20260510093128 53 298 0.0 0.9 0.00 0.00 0.00 50 1013.5
20260510092622 53 298 0.0 0.9 0.00 0.00 0.00 50 1013.4
20260510092350 52 298 0.0 0.0 0.00 0.00 0.00 50 1013.4
20260510091610 53 298 0.0 0.0 0.00 0.00 0.00 50 1013.5
20260510091111 53 298 0.0 0.0 0.00 0.00 0.00 49 1013.5
20260510090556 53 298 0.0 0.0 0.00 0.00 0.00 48 1013.5
20260510090049 53 298 0.0 0.0 0.00 0.00 0.00 48 1013.5
20260510085547 54 298 0.0 0.0 0.00 0.00 0.00 48 1013.6
20260510085043 55 298 0.0 0.0 0.00 0.00 0.00 47 1013.6
20260510085039 54 298 0.0 0.0 0.00 0.00 0.00 48 1013.6
20260510084028 55 298 0.0 0.0 0.00 0.00 0.00 46 1013.5
20260510083520 55 298 0.0 0.0 0.00 0.00 0.00 46 1013.5
20260510083017 56 298 0.0 0.0 0.00 0.00 0.00 45 1013.5
20260510082514 56 298 0.0 0.0 0.00 0.00 0.00 45 1013.5
20260510082008 56 298 0.0 0.0 0.00 0.00 0.00 45 1013.6
20260510081502 56 298 0.0 0.0 0.00 0.00 0.00 45 1013.6
20260510080949 56 298 0.0 0.0 0.00 0.00 0.00 44 1013.6
20260510080443 56 298 0.0 0.0 0.00 0.00 0.00 44 1013.6
20260510075940 56 298 0.0 0.0 0.00 0.00 0.00 43 1013.6
20260510075434 56 298 0.0 0.0 0.00 0.00 0.00 43 1013.8
20260510074929 57 298 0.0 0.0 0.00 0.00 0.00 42 1013.6
20260510074418 57 298 0.0 0.0 0.00 0.00 0.00 42 1013.8
20260510074201 57 298 0.0 0.0 0.00 0.00 0.00 42 1013.6
20260510073410 58 298 0.0 0.0 0.00 0.00 0.00 41 1013.6
20260510073136 58 298 0.0 0.0 0.00 0.00 0.00 41 1013.6
20260510072358 58 298 0.0 0.0 0.00 0.00 0.00 41 1013.6
20260510071851 58 298 0.0 0.9 0.00 0.00 0.00 40 1013.8
20260510071620 59 298 0.0 0.9 0.00 0.00 0.00 40 1013.8
20260510070842 59 298 0.0 0.9 0.00 0.00 0.00 40 1013.8
20260510070607 59 298 0.0 0.9 0.00 0.00 0.00 40 1013.8
20260510065829 59 298 0.0 1.7 0.00 0.00 0.00 39 1013.8
20260510065325 60 298 0.0 2.6 0.00 0.00 0.00 39 1013.8
20260510064815 60 298 0.9 2.6 0.00 0.00 0.00 39 1013.6
20260510064314 60 298 0.9 2.6 0.00 0.00 0.00 39 1013.6
20260510064049 60 298 1.7 3.5 0.00 0.00 0.00 39 1013.8
20260510063532 61 299 1.7 3.5 0.00 0.00 0.00 39 1013.6
20260510062811 61 293 1.7 3.5 0.00 0.00 0.00 39 1013.6
20260510062306 61 286 1.7 3.5 0.00 0.00 0.00 39 1013.6
20260510062027 61 300 1.7 3.5 0.00 0.00 0.00 39 1013.6
20260510061523 61 308 1.7 3.5 0.00 0.00 0.00 39 1013.6
20260510061310 61 308 1.7 3.5 0.00 0.00 0.00 39 1013.6
20260510060801 62 306 1.7 3.5 0.00 0.00 0.00 38 1013.8
20260510060528 62 302 1.7 3.5 0.00 0.00 0.00 38 1013.8
20260510060308 62 302 1.7 3.5 0.00 0.00 0.00 38 1013.8
20260510060306 62 300 1.7 4.3 0.00 0.00 0.00 38 1013.8
20260510055807 62 300 1.7 4.3 0.00 0.00 0.00 38 1013.8
20260510055306 62 310 1.7 4.3 0.00 0.00 0.00 37 1013.8
20260510054815 62 325 1.7 4.3 0.00 0.00 0.00 37 1013.8
20260510054312 63 307 1.7 3.5 0.00 0.00 0.00 37 1013.8
20260510054044 63 306 1.7 3.5 0.00 0.00 0.00 36 1013.8
20260510053302 63 306 1.7 5.2 0.00 0.00 0.00 36 1013.8
20260510052811 64 296 2.6 5.2 0.00 0.00 0.00 35 1013.8
20260510052524 64 305 2.6 6.1 0.00 0.00 0.00 35 1013.9
20260510052307 64 305 2.6 6.1 0.00 0.00 0.00 35 1013.9
20260510051800 65 290 2.6 6.1 0.00 0.00 0.00 34 1013.8
20260510051308 66 327 1.7 3.5 0.00 0.00 0.00 35 1013.8
20260510051301 65 324 1.7 3.5 0.00 0.00 0.00 34 1013.8
20260510050253 66 347 1.7 4.3 0.00 0.00 0.00 35 1013.6
20260510045747 66 355 1.7 4.3 0.00 0.00 0.00 35 1013.8
20260510045523 67 346 1.7 4.3 0.00 0.00 0.00 34 1013.6
20260510044736 67 336 1.7 4.3 0.00 0.00 0.00 34 1013.6
20260510044230 67 355 1.7 5.2 0.00 0.00 0.00 34 1013.6
20260510044015 68 350 2.6 7.0 0.00 0.00 0.00 33 1013.5
20260510043217 68 355 2.6 7.0 0.00 0.00 0.00 32 1013.4
20260510042743 68 5 2.6 7.0 0.00 0.00 0.00 31 1013.3
20260510042727 68 348 2.6 7.0 0.00 0.00 0.00 32 1013.4
20260510041701 69 355 2.6 7.0 0.00 0.00 0.00 31 1013.3
20260510041153 69 346 2.6 7.0 0.00 0.00 0.00 30 1013.2
20260510040928 69 11 2.6 8.7 0.00 0.00 0.00 29 1013.2
20260510040142 69 350 2.6 8.7 0.00 0.00 0.00 27 1013.1
20260510035917 70 346 2.6 11.3 0.00 0.00 0.00 26 1013.1
20260510035129 70 355 2.6 11.3 0.00 0.00 0.00 25 1013.0
20260510034623 70 355 2.6 7.0 0.00 0.00 0.00 24 1012.9
20260510034117 71 355 2.6 7.0 0.00 0.00 0.00 23 1012.8
20260510033612 71 355 2.6 7.0 0.00 0.00 0.00 23 1012.8
20260510033108 71 323 1.7 7.0 0.00 0.00 0.00 22 1012.8
20260510032559 72 355 1.7 7.0 0.00 0.00 0.00 22 1012.7
20260510032336 72 5 1.7 4.3 0.00 0.00 0.00 22 1012.7
20260510031549 73 355 1.7 4.3 0.00 0.00 0.00 22 1012.7
20260510031336 73 20 0.9 4.3 0.00 0.00 0.00 22 1012.6
20260510030535 74 13 0.9 4.3 0.00 0.00 0.00 22 1012.4
20260510030032 75 31 0.9 7.8 0.00 0.00 0.00 22 1012.4
20260510025822 75 33 1.7 7.8 0.00 0.00 0.00 22 1012.4
20260510025018 76 44 0.9 5.2 0.00 0.00 0.00 21 1012.4
20260510024511 76 33 0.9 5.2 0.00 0.00 0.00 21 1012.4
20260510024008 77 5 1.7 4.3 0.00 0.00 0.00 21 1012.4
20260510023500 77 47 1.7 6.1 0.00 0.00 0.00 20 1012.3
20260510022954 78 30 1.7 6.1 0.00 0.00 0.00 20 1012.4
20260510022447 79 30 1.7 4.3 0.00 0.00 0.00 20 1012.4
20260510021941 80 34 1.7 6.1 0.00 0.00 0.00 20 1012.6
20260510021435 80 13 1.7 7.0 0.00 0.00 0.00 20 1012.4
20260510020929 80 49 2.6 7.0 0.00 0.00 0.00 20 1012.6
20260510020423 80 337 1.7 5.2 0.00 0.00 0.00 19 1012.4
20260510015917 80 43 1.7 5.2 0.00 0.00 0.00 19 1012.4
20260510015412 80 9 2.6 6.1 0.00 0.00 0.00 18 1012.6
20260510014912 80 26 2.6 7.8 0.00 0.00 0.00 19 1012.6
20260510014359 80 23 3.5 10.4 0.00 0.00 0.00 19 1012.6
20260510013854 80 342 3.5 10.4 0.00 0.00 0.00 18 1012.7
20260510013347 80 29 2.6 7.8 0.00 0.00 0.00 18 1012.8
20260510012841 80 355 2.6 8.7 0.00 0.00 0.00 19 1012.9
20260510012412 81 355 3.5 8.7 0.00 0.00 0.00 18 1012.9
20260510012354 80 355 2.6 8.7 0.00 0.00 0.00 19 1013.0
20260510011327 81 9 4.3 8.7 0.00 0.00 0.00 18 1012.9
20260510011102 81 355 3.5 8.7 0.00 0.00 0.00 18 1012.9
20260510010311 82 331 3.5 8.7 0.00 0.00 0.00 18 1012.8
20260510005811 82 349 3.5 8.7 0.00 0.00 0.00 18 1012.7
20260510005311 82 351 1.7 8.7 0.00 0.00 0.00 17 1012.7
20260510004813 82 42 1.7 4.3 0.00 0.00 0.00 17 1012.8
20260510004317 82 0 2.6 8.7 0.00 0.00 0.00 17 1012.7
20260510003814 82 342 2.6 8.7 0.00 0.00 0.00 17 1012.7
20260510003317 82 355 2.6 7.8 0.00 0.00 0.00 16 1012.7
20260510002813 82 350 2.6 7.8 0.00 0.00 0.00 17 1012.8
20260510002548 82 44 2.6 9.6 0.00 0.00 0.00 17 1012.8
20260510001811 82 41 2.6 9.6 0.00 0.00 0.00 16 1012.8
20260510001311 83 60 2.6 7.0 0.00 0.00 0.00 16 1012.8
20260510000811 83 319 2.6 7.0 0.00 0.00 0.00 17 1012.9
20260510000311 82 49 3.5 7.0 0.00 0.00 0.00 16 1013.1
20260509235812 82 342 3.5 9.6 0.00 0.00 0.00 16 1013.0
20260509235311 83 346 2.6 9.6 0.00 0.00 0.00 15 1013.1
20260509234812 83 329 2.6 7.0 0.00 0.00 0.00 17 1013.3
20260509234311 83 36 2.6 7.0 0.00 0.00 0.00 16 1013.3
20260509233810 83 11 2.6 7.0 0.00 0.00 0.00 16 1013.4
20260509233547 83 345 2.6 11.3 0.00 0.00 0.00 16 1013.4
20260509232811 82 25 2.6 11.3 0.00 0.00 0.00 16 1013.5
20260509232310 81 26 2.6 9.6 0.00 0.00 0.00 15 1013.5
20260509231811 81 346 2.6 9.6 0.00 0.00 0.00 15 1013.6
20260509231311 81 342 1.7 4.3 0.00 0.00 0.00 14 1013.8
20260509230811 81 42 2.6 4.3 0.00 0.00 0.00 13 1013.9
20260509230312 82 289 2.6 8.7 0.00 0.00 0.00 13 1013.8
20260509225810 83 50 2.6 8.7 0.00 0.00 0.00 13 1013.9
20260509225533 82 9 2.6 9.6 0.00 0.00 0.00 14 1013.9
20260509224809 82 344 3.5 9.6 0.00 0.00 0.00 14 1014.0
20260509224312 82 5 3.5 8.7 0.00 0.00 0.00 14 1014.0
20260509223816 82 295 3.5 7.8 0.00 0.00 0.00 15 1014.1
20260509223311 81 35 3.5 8.7 0.00 0.00 0.00 14 1014.2
20260509222810 81 331 3.5 8.7 0.00 0.00 0.00 15 1014.2
20260509222530 81 317 3.5 9.6 0.00 0.00 0.00 15 1014.3
20260509222029 81 23 3.5 9.6 0.00 0.00 0.00 15 1014.4
20260509221530 81 348 2.6 9.6 0.00 0.00 0.00 14 1014.5
20260509221038 81 65 1.7 9.6 0.00 0.00 0.00 16 1014.5
20260509220300 80 41 2.6 9.6 0.00 0.00 0.00 16 1015.1
20260509215752 80 36 1.7 5.2 0.00 0.00 0.00 16 1014.7
20260509215244 81 36 1.7 7.0 0.00 0.00 0.00 17 1014.8
20260509214738 80 77 2.6 7.0 0.00 0.00 0.00 17 1015.0
20260509214232 80 92 1.7 7.0 0.00 0.00 0.00 17 1015.1
20260509213726 80 43 0.9 5.2 0.00 0.00 0.00 18 1015.1
20260509213221 79 67 1.7 7.0 0.00 0.00 0.00 16 1015.2
20260509212714 79 329 2.6 7.0 0.00 0.00 0.00 17 1015.2
20260509212208 80 92 2.6 5.2 0.00 0.00 0.00 18 1015.2
20260509211703 79 58 2.6 6.1 0.00 0.00 0.00 19 1015.3
20260509211156 79 0 2.6 7.0 0.00 0.00 0.00 18 1015.3
20260509210650 78 310 2.6 7.0 0.00 0.00 0.00 18 1015.3
20260509210147 78 36 1.7 4.3 0.00 0.00 0.00 19 1015.5
20260509205640 78 251 2.6 7.8 0.00 0.00 0.00 19 1015.5
20260509205131 78 67 3.5 7.8 0.00 0.00 0.00 21 1015.5
20260509204626 77 36 2.6 7.8 0.00 0.00 0.00 20 1015.6
20260509204120 77 64 2.6 7.8 0.00 0.00 0.00 20 1015.7
20260509203614 77 73 2.6 5.2 0.00 0.00 0.00 21 1015.8
20260509203110 77 338 2.6 6.1 0.00 0.00 0.00 21 1015.8
20260509202602 78 54 1.7 6.1 0.00 0.00 0.00 22 1015.8
20260509202056 78 34 1.7 8.7 0.00 0.00 0.00 23 1015.8
20260509201550 76 123 1.7 8.7 0.00 0.00 0.00 25 1015.9
20260509201045 76 74 2.6 5.2 0.00 0.00 0.00 24 1015.9
20260509200538 76 69 2.6 7.8 0.00 0.00 0.00 24 1016.0
20260509200033 75 61 1.7 7.8 0.00 0.00 0.00 24 1016.0
20260509195542 75 69 1.7 7.8 0.00 0.00 0.00 27 1016.1
20260509195020 74 64 2.6 7.8 0.00 0.00 0.00 26 1016.3
20260509194513 74 69 2.6 7.8 0.00 0.00 0.00 25 1016.3
20260509194011 74 67 1.7 7.0 0.00 0.00 0.00 26 1016.3
20260509193501 74 86 2.6 7.8 0.00 0.00 0.00 26 1016.4
20260509192956 74 31 1.7 7.8 0.00 0.00 0.00 26 1016.5
20260509192453 74 69 1.7 7.8 0.00 0.00 0.00 27 1016.7
20260509191953 74 90 2.6 7.8 0.00 0.00 0.00 27 1016.7
20260509191453 73 333 1.7 4.3 0.00 0.00 0.00 29 1016.7
20260509191042 73 49 1.7 7.8 0.00 0.00 0.00 31 1016.9
20260509191029 73 85 1.7 5.2 0.00 0.00 0.00 28 1016.7
20260509185950 72 87 2.6 7.8 0.00 0.00 0.00 29 1017.0
20260509185449 72 117 1.7 6.1 0.00 0.00 0.00 31 1017.1
20260509184956 71 75 1.7 4.3 0.00 0.00 0.00 33 1017.1
20260509184456 71 63 2.6 7.8 0.00 0.00 0.00 32 1017.3
20260509184019 71 63 1.7 6.1 0.00 0.00 0.00 35 1017.3
20260509184015 71 65 2.6 7.8 0.00 0.00 0.00 32 1017.2
20260509182949 70 85 1.7 5.2 0.00 0.00 0.00 35 1017.3
20260509182449 70 115 1.7 5.2 0.00 0.00 0.00 36 1017.5
20260509181953 70 135 0.9 5.2 0.00 0.00 0.00 32 1017.6
20260509181455 69 101 1.7 5.2 0.00 0.00 0.00 36 1017.6
20260509181022 68 122 1.7 6.1 0.00 0.00 0.00 37 1017.6
20260509181017 68 74 1.7 5.2 0.00 0.00 0.00 37 1017.6
20260509175948 67 155 2.6 6.1 0.00 0.00 0.00 37 1017.6
20260509175446 67 175 1.7 6.1 0.00 0.00 0.00 38 1017.6
20260509174946 67 126 2.6 7.8 0.00 0.00 0.00 39 1017.7
20260509174444 66 107 2.6 7.8 0.00 0.00 0.00 39 1017.7
20260509174220 67 198 1.7 7.8 0.00 0.00 0.00 39 1017.7
20260509173440 66 128 2.6 7.8 0.00 0.00 0.00 41 1017.7
20260509172939 66 127 2.6 7.8 0.00 0.00 0.00 41 1017.8
20260509172440 65 213 1.7 7.8 0.00 0.00 0.00 42 1017.8
20260509171941 65 104 2.6 7.0 0.00 0.00 0.00 44 1017.9
20260509171440 65 117 2.6 7.8 0.00 0.00 0.00 44 1017.9
20260509170938 64 109 2.6 7.8 0.00 0.00 0.00 44 1017.9
20260509170659 64 126 1.7 6.1 0.00 0.00 0.00 45 1018.0
20260509170439 64 126 1.7 6.1 0.00 0.00 0.00 45 1018.0
20260509165935 64 115 1.7 7.0 0.00 0.00 0.00 45 1018.0
20260509165431 63 119 1.7 7.0 0.00 0.00 0.00 45 1018.0
20260509165239 62 178 1.7 5.2 0.00 0.00 0.00 48 1018.2
20260509165234 63 96 1.7 6.1 0.00 0.00 0.00 47 1018.1
20260509163931 62 168 1.7 7.0 0.00 0.00 0.00 49 1018.2
20260509163439 61 159 0.9 7.0 0.00 0.00 0.00 49 1018.2
20260509162930 60 169 0.9 1.7 0.00 0.00 0.00 52 1018.2
20260509162430 59 175 0.9 6.1 0.00 0.00 0.00 52 1018.3
20260509162427 59 197 1.7 6.1 0.00 0.00 0.00 52 1018.3
20260509161426 58 111 1.7 4.3 0.00 0.00 0.00 54 1018.5
20260509160918 58 182 1.7 4.3 0.00 0.00 0.00 53 1018.5
20260509160411 58 186 0.9 4.3 0.00 0.00 0.00 53 1018.5
20260509155908 57 148 0.9 3.5 0.00 0.00 0.00 55 1018.4
20260509155359 57 163 0.9 3.5 0.00 0.00 0.00 55 1018.4
20260509155129 56 134 0.9 3.5 0.00 0.00 0.00 57 1018.4
20260509154350 55 151 1.7 4.3 0.00 0.00 0.00 58 1018.5
20260509153842 55 184 1.7 4.3 0.00 0.00 0.00 59 1018.7
20260509153614 54 135 1.7 6.1 0.00 0.00 0.00 59 1018.7
20260509153100 53 184 1.7 6.1 0.00 0.00 0.00 59 1018.8
20260509152323 53 151 1.7 4.3 0.00 0.00 0.00 61 1018.8
20260509151818 52 183 1.7 6.1 0.00 0.00 0.00 62 1019.0
20260509151311 52 151 1.7 6.1 0.00 0.00 0.00 63 1018.9
20260509150808 51 143 1.7 6.1 0.00 0.00 0.00 63 1018.9
20260509150259 51 149 1.7 6.1 0.00 0.00 0.00 64 1018.8
20260509145753 50 179 1.7 6.1 0.00 0.00 0.00 65 1018.8
20260509145247 50 155 0.9 6.1 0.00 0.00 0.00 66 1018.9
20260509144742 49 134 1.7 5.2 0.00 0.00 0.00 69 1018.7
20260509144237 48 138 2.6 7.0 0.00 0.00 0.00 69 1018.8
20260509143729 47 146 2.6 6.1 0.00 0.00 0.00 70 1018.8
20260509143717 47 124 2.6 7.0 0.00 0.00 0.00 71 1018.8
20260509143458 47 124 2.6 7.0 0.00 0.00 0.00 71 1018.8
20260509142717 47 134 2.6 7.0 0.00 0.00 0.00 72 1018.8
20260509142444 46 142 1.7 5.2 0.00 0.00 0.00 72 1018.8
20260509141935 46 137 1.7 5.2 0.00 0.00 0.00 73 1018.8
20260509141159 45 136 1.7 7.0 0.00 0.00 0.00 74 1018.7
20260509140653 44 150 1.7 7.0 0.00 0.00 0.00 75 1018.7
20260509140148 44 125 1.7 6.1 0.00 0.00 0.00 76 1018.7
20260509135641 43 128 1.7 6.1 0.00 0.00 0.00 77 1018.5
20260509135135 42 130 1.7 5.2 0.00 0.00 0.00 78 1018.5
20260509134629 42 130 1.7 4.3 0.00 0.00 0.00 78 1018.4
20260509134122 42 144 1.7 4.3 0.00 0.00 0.00 78 1018.5
20260509133617 41 128 1.7 6.1 0.00 0.00 0.00 79 1018.3
20260509133442 40 134 1.7 6.1 0.00 0.00 0.00 79 1018.4
20260509133438 40 144 2.6 6.1 0.00 0.00 0.00 80 1018.3
20260509133433 41 130 1.7 6.1 0.00 0.00 0.00 79 1018.3
20260509131617 40 144 2.6 7.0 0.00 0.00 0.00 80 1018.2
20260509131115 39 161 2.6 7.0 0.00 0.00 0.00 80 1018.1
20260509130615 39 136 1.7 7.0 0.00 0.00 0.00 80 1018.1
20260509130117 39 158 1.7 5.2 0.00 0.00 0.00 79 1018.0
20260509125613 39 143 1.7 5.2 0.00 0.00 0.00 79 1018.0
20260509125113 39 141 1.7 4.3 0.00 0.00 0.00 79 1017.9
20260509124611 39 171 1.7 6.1 0.00 0.00 0.00 79 1017.9
20260509124112 39 147 1.7 6.1 0.00 0.00 0.00 80 1017.9
20260509123611 39 148 2.6 6.1 0.00 0.00 0.00 81 1017.9
20260509123111 39 144 3.5 6.1 0.00 0.00 0.00 80 1017.9
20260509122611 39 141 3.5 6.1 0.00 0.00 0.00 79 1018.0
20260509122111 39 132 3.5 7.0 0.00 0.00 0.00 79 1018.0
20260509121611 40 136 2.6 7.0 0.00 0.00 0.00 79 1018.1
20260509121112 40 135 0.9 4.3 0.00 0.00 0.00 80 1018.3
20260509120610 40 126 0.9 3.5 0.00 0.00 0.00 81 1018.3
20260509120112 40 128 1.7 3.5 0.00 0.00 0.00 82 1018.3
20260509115611 40 131 0.9 2.6 0.00 0.00 0.00 82 1018.3
20260509115111 40 149 0.0 1.7 0.00 0.00 0.00 83 1018.3
20260509114612 39 150 0.0 0.9 0.00 0.00 0.00 83 1018.3
20260509114111 39 150 0.0 0.0 0.00 0.00 0.00 82 1018.2
20260509113610 40 150 0.0 0.9 0.00 0.00 0.00 81 1018.3
20260509113350 40 150 0.0 0.9 0.00 0.00 0.00 80 1018.3
20260509112611 41 150 0.0 0.0 0.00 0.00 0.00 80 1018.3
20260509112120 41 150 0.0 0.0 0.00 0.00 0.00 78 1018.2
20260509111616 42 150 0.0 0.0 0.00 0.00 0.00 78 1018.3
20260509111113 42 150 0.0 0.0 0.00 0.00 0.00 78 1018.3
20260509110609 42 150 0.0 1.7 0.00 0.00 0.00 78 1018.3
20260509110331 42 150 0.0 1.7 0.00 0.00 0.00 78 1018.2